Wind_Speed
4 4 4 4 5 6 7 8 9 9 9 8 7 6 5 4 4 4 4 5 5 5 5 5 4 4 4 4 4 4 4 4 4 4 4 4 4 4 5 5 5 5 4
5 6 6 6 6 7 8 9 10 10 10 9 8 7 6 5 4 3 3 3 3 3 3 3 3 3 2 2 2 2 2 2 3 3 3 3 3 3 3 4 4 4 4
6 7 7 7 7 8 9 10 11 11 11 10 9 8 8 7 6 5 4 4 4 3 3 3 2 2 1 1 1 1 1 1 1 1 1 2 2 2 2 2 3 3 3
6 7 7 7 8 9 10 10 11 12 11 11 10 10 9 9 8 7 6 6 6 5 4 4 3 3 2 2 1 1 1 1 1 1 1 1 2 2 2 2 2 3 3
6 7 7 8 9 10 11 11 11 12 12 12 11 11 11 11 10 9 8 8 8 7 6 6 5 4 4 4 3 3 3 3 3 3 3 3 3 3 3 3 3 3 4
7 7 7 8 9 10 11 11 12 12 12 12 12 13 13 12 12 11 11 10 10 9 9 8 7 7 6 6 5 5 5 5 5 5 4 4 5 5 5 5 5 5 5
8 8 8 9 10 11 12 12 13 13 13 14 14 14 14 14 14 14 14 13 12 12 11 10 10 9 9 8 8 8 7 7 7 7 7 7 7 7 7 7 7 7 7
9 9 10 11 12 13 13 14 14 15 15 15 16 16 16 16 17 17 16 15 15 14 13 13 12 12 12 11 11 11 10 10 10 9 9 9 9 9 9 9 9 9 9
10 11 12 13 14 15 16 16 17 17 18 18 18 19 19 19 19 19 18 18 18 17 16 15 15 15 15 14 14 14 13 13 13 12 12 12 12 12 12 12 12 12 12
13 14 15 16 18 18 19 19 20 20 21 21 21 22 22 22 21 21 20 20 20 19 18 17 17 17 17 17 16 16 16 16 15 15 15 14 14 14 14 15 15 14 14
16 17 18 19 21 21 21 22 22 23 23 24 24 25 25 25 24 24 23 23 22 21 20 19 19 19 19 19 18 18 17 17 16 17 17 16 16 16 16 17 17 17 17
18 19 20 21 23 24 24 25 26 26 27 27 28 28 29 29 28 27 26 25 24 23 22 21 20 20 20 20 19 19 18 18 18 18 18 17 17 17 18 18 19 19 19
21 22 23 24 25 26 27 29 29 30 30 31 32 33 33 33 32 31 30 28 27 26 25 23 22 21 21 20 20 19 19 18 18 19 19 18 18 18 19 19 19 20 21
23 24 25 26 28 29 30 31 32 33 34 35 35 35 36 35 36 35 33 32 30 28 27 26 23 22 22 21 21 20 19 19 19 19 18 18 18 18 19 19 20 21 21
26 27 28 29 30 31 32 33 33 35 36 37 38 38 38 38 38 38 37 35 33 31 29 26 24 24 23 22 21 21 20 20 20 19 18 18 18 18 18 18 19 20 21
29 30 31 32 33 34 34 34 35 37 38 38 37 37 38 38 38 39 38 36 33 32 30 28 26 25 24 23 23 22 21 21 20 19 18 18 19 19 18 18 19 19 20
32 33 33 34 35 36 35 36 35 36 37 36 37 37 38 38 38 39 39 37 35 33 32 30 29 27 25 24 24 23 22 21 20 19 19 19 18 18 18 18 19 19 20
33 34 35 36 37 38 37 35 34 35 34 34 36 38 37 37 38 39 39 38 36 34 32 31 30 29 27 26 24 24 23 22 21 20 20 19 18 17 17 17 18 18 18
34 35 36 37 38 38 37 36 35 35 34 34 34 34 33 32 33 36 37 37 37 35 32 31 29 30 29 27 25 24 23 22 22 21 20 19 18 17 17 17 17 17 18
35 37 37 39 40 39 39 38 37 36 36 35 32 29 28 28 30 32 33 33 35 35 32 31 30 30 29 28 26 25 25 24 23 22 22 20 19 18 18 17 16 16 16
37 38 39 40 40 40 40 39 37 36 35 33 31 29 26 26 28 27 29 30 31 32 31 31 30 30 30 29 27 26 26 26 25 24 23 22 20 20 19 17 16 15 15
36 38 38 38 38 38 37 36 36 35 34 33 31 29 26 26 27 27 28 29 30 29 29 31 31 30 29 29 29 28 28 27 27 26 25 24 23 21 20 19 17 16 15
35 35 36 36 36 36 36 36 36 36 34 32 31 29 27 26 27 27 28 29 29 29 29 30 31 31 31 31 31 30 30 30 29 29 28 27 25 24 22 20 18 17 15
33 34 34 35 35 36 37 37 37 36 35 34 33 32 30 30 29 29 29 29 30 30 31 31 31 30 30 31 31 31 32 31 31 31 30 29 27 26 24 22 20 18 17
32 33 34 35 36 37 38 38 39 38 38 38 37 36 34 34 34 33 33 33 32 33 32 32 32 31 31 32 32 32 33 33 33 33 33 32 30 28 27 25 23 21 19
34 35 37 38 39 39 40 41 41 41 41 41 40 40 39 38 37 38 38 37 37 37 36 35 35 35 35 35 35 36 36 36 35 35 35 35 33 32 30 28 26 24 22
Wind_Direction
298 302 305 313 320 323 323 321 320 320 321 324 329 337 350 3 20 35 43 46 49 53 56 59 63 66 65 66 69 69 69 73 80 82 86 92 101 110 116 119 119 118 120
302 304 306 310 314 316 316 315 314 314 314 317 320 324 329 336 342 356 11 16 20 26 31 36 43 52 58 62 68 76 81 81 84 94 99 103 109 117 126 132 132 131 132
307 307 308 312 315 314 311 309 309 308 309 310 313 314 316 319 322 326 331 334 338 342 346 349 351 357 5 26 63 85 101 114 124 124 129 134 136 137 140 146 152 155 155
315 311 312 315 316 314 310 305 304 304 304 306 308 308 310 312 312 311 312 314 314 314 312 311 308 306 302 295 276 253 233 217 214 213 206 205 198 192 193 190 184 184 187
315 313 314 316 313 309 306 302 302 302 301 302 303 304 305 307 306 305 303 302 301 300 297 293 289 288 286 281 273 263 253 246 243 241 238 238 236 229 224 224 219 210 208
309 312 315 315 310 305 302 300 300 300 299 299 299 300 300 301 301 300 300 297 295 293 289 285 281 279 278 275 270 263 258 253 249 248 246 244 243 241 238 234 231 228 223
302 307 311 312 309 304 300 299 298 297 297 296 296 296 297 297 296 296 296 294 291 288 285 280 276 274 272 270 267 262 258 256 253 250 248 246 244 243 241 239 237 234 232
297 301 303 305 305 302 300 298 298 297 297 296 296 295 295 295 293 293 292 290 287 284 281 278 274 271 269 266 263 260 257 255 254 253 251 248 246 245 243 240 240 239 237
293 294 295 297 299 298 297 296 298 298 298 297 296 295 295 294 292 291 289 287 285 282 277 274 271 269 267 265 262 259 257 255 254 254 253 251 248 247 246 244 243 242 240
291 292 292 293 295 295 294 294 296 298 298 296 295 294 294 293 292 290 288 286 284 280 276 271 269 267 266 264 262 260 257 255 254 252 252 251 249 248 247 245 245 243 242
290 290 291 292 293 293 291 291 292 293 293 292 291 291 291 290 289 288 285 284 281 278 275 271 268 266 266 264 261 261 258 255 258 254 252 251 250 249 247 246 245 243 242
287 288 290 291 292 291 289 288 289 289 289 288 287 288 288 287 285 284 283 281 279 276 273 269 267 264 264 262 260 259 259 258 257 255 252 251 252 250 249 247 246 244 242
288 288 289 289 289 289 288 287 286 287 288 288 287 286 286 285 283 281 280 279 277 274 271 267 263 261 260 259 259 258 257 257 258 254 252 250 251 252 251 250 249 247 245
289 288 287 286 287 288 288 288 287 285 285 286 285 284 282 282 281 278 277 276 274 272 270 265 261 258 257 257 258 257 255 254 256 254 252 249 250 251 252 252 250 249 248
288 287 288 289 288 288 287 286 285 285 286 284 283 282 280 278 277 275 275 273 270 267 267 262 260 257 254 254 255 255 254 253 253 251 252 250 250 250 252 253 253 251 250
283 285 286 289 291 290 289 288 286 285 285 283 284 283 281 277 275 272 271 269 265 264 263 257 257 255 253 252 252 252 251 251 250 250 251 251 251 251 252 253 254 254 252
281 283 285 289 292 292 292 293 290 289 289 286 283 282 282 278 275 271 268 267 262 262 262 258 256 253 251 250 250 250 247 247 246 245 247 249 249 250 250 252 256 256 255
279 281 285 289 291 291 294 292 292 293 293 291 288 284 280 276 274 269 265 263 260 261 258 256 254 252 251 249 249 247 245 244 243 243 245 247 248 249 249 252 254 255 255
278 281 285 289 291 292 293 291 290 293 296 295 294 288 281 275 272 267 261 259 257 256 254 254 251 250 249 248 247 245 244 242 241 240 242 244 246 247 249 252 253 256 257
281 284 286 288 289 292 292 291 291 292 295 295 293 290 284 277 271 265 260 257 253 251 250 251 249 248 247 245 245 244 244 242 240 240 240 242 244 247 249 251 251 254 255
283 285 285 287 289 290 290 291 291 292 294 292 292 291 286 279 270 266 259 258 251 248 248 246 248 248 247 243 243 243 242 241 239 238 238 240 243 245 247 249 250 253 255
286 288 289 289 289 290 290 292 293 294 295 292 291 292 287 278 269 265 260 254 250 248 247 247 247 250 245 242 242 242 241 239 237 236 237 239 240 242 244 247 250 253 256
288 290 291 291 291 292 292 292 293 293 294 294 292 291 288 282 274 268 262 257 254 251 251 249 248 249 245 243 241 241 239 238 236 235 236 237 238 240 241 244 247 249 253
292 293 294 294 293 292 293 293 292 291 290 290 290 288 286 282 276 270 265 261 255 252 249 249 249 247 244 242 242 241 238 237 235 235 235 236 236 237 239 241 243 245 249
296 295 296 295 294 293 293 292 291 290 289 288 286 284 281 277 271 267 263 260 258 254 250 249 248 245 244 243 242 241 239 237 236 235 235 235 235 236 237 239 242 244 247
298 298 297 296 295 294 293 292 291 289 287 285 283 280 277 274 269 265 263 260 257 255 251 250 248 246 245 243 243 242 240 239 237 236 237 236 236 235 236 238 240 242 245
Height
5923 5922 5922 5921 5920 5919 5919 5918 5918 5917 5916 5915 5914 5912 5911 5910 5909 5908 5907 5906 5906 5905 5904 5903 5903 5902 5902 5901 5900 5900 5899 5899 5899 5898 5898 5898 5898 5898 5898 5898 5898 5898 5898
5922 5922 5921 5921 5920 5919 5918 5918 5917 5916 5915 5914 5913 5912 5911 5910 5909 5908 5907 5906 5906 5905 5905 5904 5903 5903 5902 5902 5901 5901 5900 5900 5899 5899 5899 5899 5899 5899 5899 5899 5899 5899 5899
5921 5920 5920 5920 5919 5918 5917 5917 5916 5915 5914 5913 5912 5911 5910 5909 5909 5908 5907 5907 5906 5905 5905 5904 5903 5903 5902 5902 5901 5901 5901 5900 5900 5900 5899 5899 5899 5899 5899 5899 5899 5899 5900
5920 5919 5919 5918 5918 5917 5916 5916 5915 5914 5913 5912 5911 5910 5909 5909 5908 5907 5907 5906 5906 5905 5904 5904 5903 5903 5902 5902 5901 5901 5901 5900 5900 5900 5900 5899 5899 5899 5900 5900 5900 5900 5900
5918 5917 5917 5916 5916 5916 5915 5914 5913 5912 5911 5910 5910 5909 5908 5907 5907 5906 5905 5905 5905 5904 5903 5903 5902 5902 5901 5901 5901 5900 5900 5900 5900 5900 5899 5899 5899 5899 5900 5900 5900 5900 5901
5916 5915 5915 5914 5914 5913 5913 5912 5911 5911 5910 5909 5908 5907 5906 5906 5905 5904 5904 5903 5903 5902 5902 5901 5901 5900 5900 5900 5899 5899 5899 5899 5899 5899 5899 5899 5899 5899 5899 5900 5900 5901 5901
5914 5913 5913 5912 5912 5911 5911 5910 5909 5908 5908 5907 5906 5905 5904 5903 5903 5902 5902 5901 5901 5900 5900 5899 5899 5898 5898 5898 5898 5898 5898 5898 5898 5898 5898 5898 5898 5899 5899 5899 5900 5900 5901
5912 5911 5911 5910 5910 5909 5908 5908 5907 5906 5905 5904 5903 5902 5902 5901 5900 5900 5899 5898 5898 5897 5897 5897 5896 5896 5896 5895 5895 5895 5896 5896 5896 5896 5896 5897 5897 5898 5898 5898 5899 5899 5900
5910 5909 5908 5908 5907 5906 5906 5905 5904 5903 5902 5901 5901 5900 5899 5898 5897 5897 5896 5895 5895 5894 5894 5893 5893 5893 5892 5892 5892 5893 5893 5893 5893 5894 5894 5895 5895 5896 5896 5897 5897 5898 5899
5908 5907 5906 5905 5904 5903 5903 5902 5901 5900 5899 5898 5897 5896 5895 5894 5894 5893 5892 5892 5891 5890 5890 5889 5889 5889 5888 5889 5889 5889 5889 5889 5890 5890 5891 5892 5893 5893 5894 5894 5895 5896 5897
5906 5905 5904 5903 5901 5900 5899 5898 5897 5896 5895 5894 5893 5892 5891 5890 5889 5888 5888 5887 5886 5886 5886 5885 5885 5885 5884 5884 5884 5884 5885 5885 5886 5886 5887 5888 5889 5890 5891 5891 5892 5893 5894
5903 5902 5901 5900 5898 5896 5895 5894 5893 5891 5890 5889 5887 5886 5885 5884 5883 5882 5882 5881 5881 5881 5880 5880 5880 5880 5879 5880 5880 5880 5880 5881 5881 5882 5883 5884 5885 5886 5887 5887 5888 5889 5890
5900 5899 5897 5896 5894 5892 5891 5889 5887 5886 5884 5883 5881 5880 5879 5878 5876 5875 5875 5875 5874 5874 5874 5874 5874 5874 5874 5875 5875 5875 5876 5877 5877 5878 5879 5880 5881 5882 5883 5883 5884 5885 5886
5896 5895 5893 5891 5890 5888 5886 5884 5882 5880 5878 5877 5875 5873 5872 5871 5870 5868 5868 5867 5867 5867 5868 5868 5868 5869 5869 5869 5870 5871 5871 5872 5872 5873 5874 5875 5876 5877 5878 5879 5880 5881 5882
5892 5890 5888 5887 5885 5883 5881 5879 5877 5874 5872 5869 5867 5866 5864 5863 5862 5861 5861 5860 5860 5860 5861 5862 5862 5863 5864 5864 5865 5866 5867 5867 5867 5868 5870 5871 5872 5873 5873 5874 5875 5876 5877
5887 5885 5883 5882 5880 5877 5874 5872 5869 5867 5865 5861 5859 5857 5855 5853 5853 5852 5852 5852 5853 5853 5853 5854 5856 5857 5857 5858 5859 5860 5861 5862 5863 5864 5865 5866 5867 5868 5869 5870 5870 5871 5872
5882 5880 5878 5876 5873 5871 5868 5865 5862 5859 5857 5853 5850 5847 5846 5844 5843 5843 5844 5844 5845 5845 5846 5847 5849 5850 5851 5852 5853 5855 5856 5857 5858 5859 5860 5861 5862 5863 5864 5865 5866 5866 5867
5876 5873 5871 5869 5867 5863 5860 5857 5855 5852 5849 5844 5840 5837 5835 5834 5834 5834 5834 5835 5837 5837 5839 5840 5842 5844 5845 5846 5847 5848 5850 5851 5853 5854 5855 5857 5858 5859 5860 5861 5861 5862 5862
5869 5867 5864 5862 5859 5856 5853 5849 5846 5843 5840 5835 5830 5828 5826 5824 5824 5824 5825 5826 5828 5830 5831 5833 5835 5837 5838 5840 5841 5842 5844 5846 5847 5849 5851 5852 5853 5854 5855 5856 5857 5857 5858
5863 5860 5857 5854 5851 5849 5845 5841 5837 5835 5832 5827 5823 5820 5818 5816 5815 5816 5816 5817 5819 5822 5824 5825 5828 5829 5831 5833 5834 5836 5838 5840 5841 5843 5845 5847 5848 5850 5851 5852 5852 5852 5853
5855 5852 5849 5846 5843 5840 5837 5833 5829 5826 5823 5820 5817 5813 5810 5808 5808 5808 5809 5810 5811 5814 5816 5818 5820 5822 5824 5826 5828 5829 5831 5833 5835 5837 5840 5842 5843 5845 5846 5847 5848 5848 5849
5846 5843 5840 5837 5834 5831 5828 5824 5821 5818 5815 5812 5809 5807 5804 5802 5801 5801 5803 5803 5805 5806 5808 5810 5812 5814 5816 5818 5821 5823 5825 5828 5829 5831 5834 5836 5838 5839 5841 5842 5843 5844 5844
5838 5835 5832 5828 5825 5822 5819 5816 5813 5810 5807 5805 5803 5801 5799 5797 5796 5795 5796 5797 5798 5799 5801 5803 5805 5807 5808 5811 5813 5815 5818 5820 5823 5825 5827 5830 5832 5834 5836 5837 5838 5839 5840
5830 5827 5824 5820 5817 5814 5810 5807 5804 5801 5799 5797 5795 5793 5792 5790 5789 5789 5789 5790 5790 5791 5793 5795 5797 5798 5800 5802 5805 5807 5810 5812 5815 5818 5821 5823 5826 5828 5830 5832 5833 5835 5836
5823 5819 5816 5812 5809 5805 5802 5798 5795 5792 5790 5788 5786 5784 5783 5782 5781 5780 5780 5781 5782 5783 5784 5786 5788 5790 5792 5794 5796 5799 5801 5804 5807 5810 5813 5816 5819 5821 5824 5826 5828 5830 5831
5815 5811 5807 5803 5800 5796 5792 5788 5785 5782 5779 5777 5775 5774 5772 5772 5771 5771 5771 5771 5772 5773 5775 5776 5778 5780 5782 5785 5787 5790 5793 5796 5798 5801 5805 5808 5811 5814 5817 5819 5822 5824 5826